Date String (YYYY-MM-DD hh:mm:ss) UTC,Instrument flags,Ambient pressure (hPa),Sample flow (lpm),Bypass flow (lpm),Sample temperature (°C),Ambient temperature (°C),ASC tube jacket temperature (°C),LED temperature (°C),Box temperature (°C),Sample RH (%),Span deviation,Mass concentration (μg/m³),Mass concentration (μg/m³),Mass concentration (μg/m³)
DateTimeUTC,F1_M11,P_M11,Q1_M11,Q2_M11,T1_M11,T2_M11,T3_M11,T4_M11,T5_M11,U1_M11,ZSPAN_M11,X0_M11,X2_M11,X1_M11
2022-08-26 20:00:00,,0827.3,5.00,0.00,29.8,28.8,00.0,38.4,31.7,30.8,0000.0,0013.13,0005.67,0004.85
2022-08-26 20:01:00,,0827.0,5.00,0.00,29.8,28.8,00.0,38.4,31.8,30.8,0000.0,0012.45,0005.58,0004.83
2022-08-26 20:02:00,,0827.0,4.99,0.00,29.8,28.0,00.0,38.4,31.8,30.6,0000.0,0012.53,0005.58,0004.82
2022-08-26 20:03:00,,0827.0,5.00,0.00,29.8,27.0,00.0,38.4,31.6,30.5,0000.0,0013.06,0005.63,0004.83
2022-08-26 20:04:00,,0826.9,5.00,0.00,29.8,26.7,00.0,38.4,31.6,30.3,0000.0,0013.23,0005.65,0004.84
2022-08-26 20:05:00,,0826.9,5.00,0.00,29.7,26.8,00.0,38.4,31.4,30.9,0000.0,0013.82,0005.66,0004.84
2022-08-26 20:06:00,,0826.9,5.01,0.00,29.6,27.2,00.0,38.3,31.4,31.2,0000.0,0014.35,0005.65,0004.84
2022-08-26 20:07:00,,0826.9,5.00,0.00,29.6,27.5,00.0,38.3,31.5,31.4,0000.0,0013.89,0005.66,0004.85
2022-08-26 20:08:00,,0826.9,5.00,0.00,29.6,27.8,00.0,38.3,31.5,31.8,0000.0,0013.31,0005.63,0004.85
2022-08-26 20:09:00,,0827.1,4.99,0.00,29.7,28.1,00.0,38.3,31.5,31.6,0000.0,0013.13,0005.65,0004.86
2022-08-26 20:10:00,,0827.1,4.99,0.00,29.7,28.3,00.0,38.3,31.6,32.3,0000.0,0013.14,0005.67,0004.88
2022-08-26 20:11:00,,0826.8,5.00,0.00,29.7,28.5,00.0,38.4,31.7,32.2,0000.0,0013.22,0005.73,0004.91
2022-08-26 20:12:00,,0826.9,5.00,0.00,29.7,28.6,00.0,38.4,31.7,32.2,0000.0,0012.96,0005.80,0004.93
2022-08-26 20:13:00,,0826.8,5.00,0.00,29.8,28.7,00.0,38.4,31.8,32.1,0000.0,0013.72,0005.80,0004.94
2022-08-26 20:14:00,,0826.8,4.99,0.00,29.8,28.2,00.0,38.4,31.7,32.1,0000.0,0013.99,0005.79,0004.96
2022-08-26 20:15:00,,0826.8,5.02,0.00,29.8,27.1,00.0,38.4,31.6,31.6,0000.0,0014.38,0005.85,0004.99
2022-08-26 20:16:00,,0826.8,4.99,0.00,29.7,26.6,00.0,38.4,31.6,31.7,0000.0,0014.21,0005.90,0005.02
2022-08-26 20:17:00,,0826.8,5.01,0.00,29.7,26.8,00.0,38.3,31.5,31.8,0000.0,0013.55,0005.90,0005.04
2022-08-26 20:18:00,,0826.8,4.99,0.00,29.6,27.0,00.0,38.3,31.3,32.1,0000.0,0013.89,0005.92,0005.05
2022-08-26 20:19:00,,0826.8,5.00,0.00,29.6,27.4,00.0,38.3,31.4,32.1,0000.0,0014.45,0005.92,0005.06
2022-08-26 20:20:00,,0826.8,5.00,0.00,29.6,27.7,00.0,38.3,31.4,32.0,0000.0,0014.42,0005.87,0005.06
2022-08-26 20:21:00,,0826.7,4.98,0.00,29.6,28.0,00.0,38.3,31.5,32.1,0000.0,0014.73,0005.92,0005.07
2022-08-26 20:22:00,,0826.8,5.00,0.00,29.6,28.2,00.0,38.3,31.5,31.8,0000.0,0015.88,0005.91,0005.07
2022-08-26 20:23:00,,0826.7,4.99,0.00,29.7,28.3,00.0,38.3,31.6,31.6,0000.0,0015.82,0005.91,0005.08
2022-08-26 20:24:00,,0826.7,5.02,0.00,29.7,28.5,00.0,38.3,31.6,31.1,0000.0,0015.03,0005.91,0005.09
2022-08-26 20:25:00,,0826.7,4.99,0.00,29.7,28.7,00.0,38.4,31.7,31.1,0000.0,0014.59,0005.94,0005.10
2022-08-26 20:26:00,,0826.8,5.00,0.00,29.8,28.8,00.0,38.4,31.8,30.8,0000.0,0014.22,0005.94,0005.10
2022-08-26 20:27:00,,0826.7,5.00,0.00,29.8,28.0,00.0,38.4,31.7,30.7,0000.0,0014.13,0005.94,0005.11
2022-08-26 20:28:00,,0826.7,5.01,0.00,29.7,27.0,00.0,38.4,31.6,30.9,0000.0,0014.86,0005.96,0005.11
2022-08-26 20:29:00,,0826.7,4.99,0.00,29.7,26.6,00.0,38.3,31.5,30.6,0000.0,0014.64,0005.98,0005.12
2022-08-26 20:30:00,,0826.7,5.01,0.00,29.7,26.8,00.0,38.3,31.4,30.9,0000.0,0014.88,0006.01,0005.13
2022-08-26 20:31:00,,0826.6,5.00,0.00,29.6,27.1,00.0,38.3,31.4,32.0,0000.0,0016.00,0006.05,0005.13
2022-08-26 20:32:00,,0826.7,5.00,0.00,29.6,27.5,00.0,38.3,31.4,31.8,0000.0,0015.96,0006.04,0005.13
2022-08-26 20:33:00,,0826.7,5.01,0.00,29.6,27.8,00.0,38.3,31.4,32.2,0000.0,0015.67,0006.06,0005.13
2022-08-26 20:34:00,,0826.7,5.01,0.00,29.6,28.0,00.0,38.3,31.5,31.7,0000.0,0015.34,0006.03,0005.12
2022-08-26 20:35:00,,0826.7,4.98,0.00,29.6,28.2,00.0,38.3,31.6,31.8,0000.0,0015.08,0006.02,0005.10
2022-08-26 20:36:00,,0826.6,5.01,0.00,29.7,28.4,00.0,38.3,31.6,31.6,0000.0,0014.80,0005.97,0005.10
2022-08-26 20:37:00,,0826.5,5.00,0.00,29.7,28.6,00.0,38.3,31.7,31.9,0000.0,0014.75,0005.93,0005.08
2022-08-26 20:38:00,,0826.5,5.00,0.00,29.7,28.7,00.0,38.4,31.7,31.5,0000.0,0014.80,0005.92,0005.07
2022-08-26 20:39:00,,0826.5,5.01,0.00,29.8,28.7,00.0,38.4,31.8,31.6,0000.0,0015.07,0005.91,0005.07
2022-08-26 20:40:00,,0826.5,5.00,0.00,29.8,27.9,00.0,38.4,31.7,31.4,0000.0,0015.06,0005.89,0005.08
2022-08-26 20:41:00,,0826.5,4.99,0.00,29.8,26.8,00.0,38.4,31.6,31.5,0000.0,0015.44,0005.89,0005.08
2022-08-26 20:42:00,,0826.5,5.01,0.00,29.7,26.7,00.0,38.3,31.6,31.0,0000.0,0015.02,0005.90,0005.09
2022-08-26 20:43:00,,0826.5,4.99,0.00,29.7,26.9,00.0,38.3,31.4,30.9,0000.0,0014.95,0005.94,0005.11
2022-08-26 20:44:00,,0826.5,5.00,0.00,29.6,27.2,00.0,38.3,31.4,30.5,0000.0,0014.23,0005.92,0005.13
2022-08-26 20:45:00,,0826.5,5.00,0.00,29.6,27.5,00.0,38.3,31.4,31.2,0000.0,0014.16,0005.94,0005.14
2022-08-26 20:46:00,,0826.5,5.00,0.00,29.6,27.8,00.0,38.3,31.5,30.8,0000.0,0015.31,0005.96,0005.15
2022-08-26 20:47:00,,0826.5,5.01,0.00,29.6,28.1,00.0,38.3,31.5,30.4,0000.0,0016.28,0006.03,0005.16
2022-08-26 20:48:00,,0826.5,4.98,0.00,29.7,28.3,00.0,38.3,31.6,30.8,0000.0,0016.62,0006.08,0005.17
2022-08-26 20:49:00,,0826.5,5.01,0.00,29.7,28.5,00.0,38.3,31.6,30.0,0000.0,0017.09,0006.11,0005.18
2022-08-26 20:50:00,,0826.5,4.99,0.00,29.7,28.6,00.0,38.3,31.7,29.9,0000.0,0016.47,0006.14,0005.19
2022-08-26 20:51:00,,0826.5,5.01,0.00,29.8,28.5,00.0,38.4,31.8,29.9,0000.0,0016.47,0006.14,0005.18
2022-08-26 20:52:00,,0826.5,5.00,0.00,29.8,27.4,00.0,38.3,31.7,30.3,0000.0,0016.12,0006.10,0005.17
2022-08-26 20:53:00,,0826.5,5.00,0.00,29.7,26.6,00.0,38.3,31.5,30.5,0000.0,0015.34,0006.09,0005.16
2022-08-26 20:54:00,,0826.5,5.00,0.00,29.7,26.6,00.0,38.3,31.4,30.8,0000.0,0015.22,0006.08,0005.16
2022-08-26 20:55:00,,0826.5,5.01,0.00,29.6,26.9,00.0,38.3,31.2,31.0,0000.0,0015.80,0006.11,0005.17
2022-08-26 20:56:00,,0826.5,4.99,0.00,29.5,27.2,00.0,38.2,31.3,31.5,0000.0,0015.75,0006.18,0005.19
2022-08-26 20:57:00,,0826.5,5.00,0.00,29.5,27.5,00.0,38.2,31.4,32.0,0000.0,0014.78,0006.21,0005.20
2022-08-26 20:58:00,,0826.5,5.01,0.00,29.6,27.9,00.0,38.2,31.4,31.8,0000.0,0013.61,0006.20,0005.22
2022-08-26 20:59:00,,0826.5,5.01,0.00,29.6,28.1,00.0,38.3,31.5,31.5,0000.0,0014.43,0006.27,0005.23
